Theta_e
317 316 317 321 325 330 332 333 333 334 335 335 335 335 334 333 333 333 333 333 332 332 332 332 332 332 332 332 332 331 331 331 331 331 332 332 332 332 333 333 333 333 332 332 331 331 331 332 332 332 332 332 332 332 332 333 332 331 331 330 330 330 329 329 328 328 328 324 318 317 316 312 310 309 309 310 311 313 320 324 325 327 328 328 329
317 317 319 326 331 333 333 333 333 334 335 335 335 335 334 333 333 333 332 332 331 331 331 331 331 332 331 331 331 331 331 331 331 331 332 332 332 332 332 333 333 333 332 332 332 332 332 332 332 332 332 332 332 333 332 333 333 332 331 330 330 330 330 329 329 328 328 327 322 318 317 315 311 310 309 309 310 312 318 324 325 326 328 328 329
317 320 325 330 332 333 334 333 333 333 334 334 334 335 334 333 333 333 332 332 332 331 331 331 331 331 332 332 331 331 330 330 330 331 331 331 331 331 331 332 332 332 332 332 332 333 333 333 333 332 332 331 332 333 333 333 333 332 332 331 331 331 331 330 330 329 328 328 326 321 317 316 314 311 310 309 310 311 316 323 325 326 327 328 329
319 325 329 331 332 333 333 332 332 332 333 334 334 334 334 333 333 332 332 332 332 331 331 331 330 331 331 331 330 330 329 329 329 329 330 330 330 330 330 330 331 331 331 332 332 332 332 332 333 333 332 331 332 332 333 333 332 332 332 331 331 331 331 331 330 330 329 328 328 325 319 316 316 314 312 310 309 310 314 321 325 326 326 327 329
321 326 329 331 333 333 332 330 330 331 332 333 334 334 334 334 333 331 332 332 332 332 331 330 329 329 329 329 329 329 328 328 328 328 329 329 329 330 330 330 330 330 331 331 331 331 331 331 331 332 332 331 331 332 332 332 332 331 331 331 332 331 331 331 330 330 330 329 329 328 323 317 316 315 314 311 309 310 311 318 323 324 326 327 328
323 325 327 330 333 333 332 330 330 331 332 333 333 334 334 333 331 331 332 333 332 331 330 329 328 328 328 327 328 327 327 327 328 328 328 329 329 329 330 330 330 330 330 330 331 331 331 330 330 330 330 330 330 330 331 331 332 331 331 332 332 331 331 331 330 330 330 329 329 329 327 321 316 315 315 312 310 310 310 314 319 322 325 326 327
322 324 326 329 333 334 333 331 330 331 332 332 333 333 332 331 331 332 333 332 331 330 329 328 328 328 327 327 327 327 327 328 328 329 328 328 329 329 329 330 330 330 329 330 331 331 331 331 330 330 330 330 329 329 330 330 331 331 331 332 332 331 332 331 331 330 329 329 329 328 329 326 320 315 315 313 310 310 310 312 316 319 323 326 326
323 323 325 330 334 335 334 332 332 333 333 333 332 331 330 330 331 332 332 331 330 329 328 328 327 326 326 327 328 328 328 328 328 328 328 328 329 329 330 330 330 329 329 330 331 331 331 331 331 331 331 331 330 330 330 329 330 331 331 331 332 332 332 331 331 331 329 329 329 328 329 328 325 318 314 313 312 310 310 311 313 317 321 324 326
326 325 328 333 335 336 335 334 334 334 333 332 332 330 329 330 332 332 331 330 328 327 327 326 325 325 325 327 328 328 327 327 327 327 327 327 328 329 330 330 329 328 329 330 330 331 331 331 331 331 331 331 331 331 331 330 330 330 330 331 331 332 332 331 331 331 331 329 329 329 329 329 328 323 316 313 312 311 310 309 311 315 319 322 324
330 329 333 335 335 335 335 334 334 334 333 332 331 330 329 330 332 331 330 328 327 327 326 325 325 325 325 326 327 326 325 326 326 326 326 326 328 329 330 329 328 328 329 329 330 330 330 331 331 331 332 331 331 332 332 332 331 331 331 331 330 331 331 331 332 332 331 331 330 330 330 329 329 328 323 316 312 312 311 309 310 313 318 321 323
332 332 334 335 334 334 334 334 334 334 333 332 331 330 330 330 330 329 329 328 328 327 326 326 326 325 324 324 325 325 324 324 324 325 327 328 328 327 327 327 327 327 328 329 330 330 330 330 330 331 331 331 331 331 331 332 332 331 331 331 330 331 331 331 331 332 331 331 331 330 330 330 329 329 329 323 316 312 311 310 310 312 316 320 322
334 333 333 333 332 333 334 335 335 334 333 332 332 331 331 330 329 328 329 329 328 327 327 327 326 324 323 323 323 323 322 322 323 327 329 328 326 324 325 327 326 326 327 329 329 328 329 329 329 330 330 331 331 331 331 331 331 331 331 331 331 331 331 331 331 331 331 331 331 331 330 330 330 329 329 328 323 316 312 312 311 312 316 319 321
335 333 333 331 330 333 335 335 335 334 334 333 333 332 332 330 329 329 329 328 328 327 326 325 324 322 320 319 320 320 320 321 322 325 329 327 324 324 326 326 324 323 324 327 328 328 328 327 327 328 329 330 330 330 330 330 330 330 331 331 331 331 332 332 331 331 331 330 331 331 330 329 330 330 329 329 328 322 316 313 313 313 316 319 320
335 333 332 330 331 334 335 334 334 334 334 334 333 333 332 331 331 330 330 329 328 327 326 325 324 322 319 316 316 317 319 320 319 323 328 327 322 322 325 327 325 323 322 324 326 326 326 326 325 325 326 327 328 328 329 330 330 330 330 330 331 331 331 332 332 332 331 331 331 331 331 330 330 330 329 329 329 327 322 317 313 313 317 320 320
334 333 331 330 332 333 332 331 332 333 333 333 333 333 332 332 331 331 331 330 329 327 326 325 324 322 320 317 316 316 316 317 317 320 323 323 321 322 325 326 325 323 321 322 323 323 323 324 324 323 324 324 325 326 327 328 329 330 330 330 330 330 330 331 332 332 331 331 331 331 330 330 330 330 330 329 329 328 327 323 317 313 315 320 321
333 331 330 331 332 332 330 330 331 332 332 332 332 332 331 331 331 332 331 330 329 328 327 325 323 321 320 319 318 317 317 316 315 315 318 321 321 321 321 321 321 321 320 321 321 321 322 322 322 322 323 324 325 325 326 327 328 329 329 329 330 330 330 330 330 331 331 331 332 332 331 330 330 330 329 329 329 329 329 328 323 315 313 318 322
333 332 332 332 330 330 330 330 331 332 332 332 332 332 331 332 332 331 331 329 328 328 327 325 323 320 319 320 319 319 320 317 316 317 319 321 320 319 318 318 318 318 318 319 319 319 319 320 321 321 323 324 325 326 326 326 327 327 328 328 329 329 329 330 330 330 330 331 331 331 332 331 330 330 330 329 329 329 328 328 327 320 313 315 320
334 334 334 332 329 330 330 330 332 332 333 333 333 333 332 332 332 331 330 329 329 328 328 326 323 321 320 321 321 321 321 320 321 321 317 317 319 319 319 317 317 316 316 316 316 316 317 319 320 321 323 324 325 326 326 327 327 327 328 328 329 329 329 329 329 329 329 330 330 330 330 330 330 330 330 330 330 329 329 328 328 325 317 313 317
335 335 335 333 331 331 331 331 332 332 333 333 333 333 333 333 333 332 331 330 329 328 327 325 323 322 322 322 321 322 322 322 323 322 319 317 316 316 316 315 315 314 313 313 313 314 316 318 320 321 322 323 324 325 326 327 327 327 328 328 328 329 329 328 328 328 328 329 330 330 330 330 331 331 330 330 330 329 329 328 328 328 323 314 314
335 335 334 333 332 332 332 331 332 332 332 333 333 333 333 333 332 332 331 330 328 326 325 323 322 321 321 320 321 321 321 322 322 322 321 319 314 312 313 313 312 313 312 312 313 314 315 318 320 320 321 321 322 323 325 326 326 326 326 327 327 328 328 328 328 327 327 327 327 328 330 330 330 330 331 330 330 330 330 329 329 329 327 319 313
334 334 334 333 333 332 332 331 331 332 333 334 333 333 332 331 330 330 329 327 325 323 322 321 320 320 319 319 319 319 319 319 319 318 318 317 315 314 314 313 312 313 313 313 313 313 315 317 318 318 318 318 318 319 321 323 324 325 324 324 325 325 326 327 327 327 327 326 326 327 328 329 330 330 330 330 330 331 330 330 329 329 329 323 316
334 334 334 334 333 332 331 331 332 333 333 333 333 331 330 328 328 327 325 323 321 320 320 319 319 318 316 316 316 316 316 315 315 315 315 316 316 315 315 315 313 313 313 314 314 314 315 316 316 315 315 316 317 317 318 319 320 322 322 323 323 323 324 325 326 326 326 327 327 326 327 328 330 330 329 330 330 330 330 330 329 328 329 326 320
334 334 334 333 333 332 332 331 332 333 333 332 330 327 326 326 325 323 321 319 319 318 318 318 317 315 314 314 314 313 314 314 314 313 313 314 314 314 314 313 312 311 311 312 313 314 316 316 315 313 314 315 316 316 316 317 317 318 319 320 320 321 322 322 324 324 324 326 326 327 327 327 328 329 329 329 329 329 330 330 330 329 329 328 324
334 334 333 332 332 331 330 330 331 332 331 328 325 324 324 323 321 318 317 317 317 317 317 315 314 314 313 313 313 313 313 312 312 312 313 313 313 313 312 311 310 309 308 309 309 310 313 314 313 312 313 313 314 315 315 315 315 315 315 316 317 317 319 320 321 322 322 323 325 326 327 327 327 328 328 329 329 329 330 330 330 330 329 329 327
333 332 332 331 331 329 329 330 331 329 325 322 321 321 321 319 317 316 316 316 315 315 314 314 313 313 313 313 313 312 311 311 311 312 313 313 313 312 311 310 309 308 307 307 307 308 309 310 310 310 310 311 311 312 313 313 313 313 314 314 315 316 317 318 319 320 320 321 322 324 326 327 327 328 328 328 328 328 329 329 330 331 330 329 329
332 331 331 331 330 330 330 331 329 324 319 318 318 318 317 316 315 314 314 314 314 313 313 313 313 313 312 312 311 311 310 310 311 312 312 311 311 310 309 309 308 307 306 306 307 307 307 308 308 308 308 308 309 310 310 310 310 311 312 313 314 314 315 317 318 319 320 320 320 321 323 325 327 327 328 328 328 328 328 329 330 331 330 329 329
332 332 331 331 331 331 331 329 326 320 315 315 316 315 314 314 313 313 313 313 313 313 313 313 312 312 311 311 310 310 310 310 311 311 310 310 309 309 308 308 307 307 306 306 306 306 307 308 307 307 307 307 307 307 307 308 308 309 309 310 311 312 313 314 315 316 318 319 319 320 321 322 324 326 326 327 328 328 328 328 329 330 330 329 328
331 331 331 331 331 331 330 328 323 317 314 315 314 314 314 313 313 313 313 313 313 312 312 312 311 310 310 309 309 309 309 309 309 309 309 308 308 307 307 307 307 307 307 306 305 305 306 306 306 306 305 305 305 305 306 306 307 307 308 309 309 310 311 312 313 314 314 316 318 319 320 321 322 323 324 325 326 327 328 328 328 329 329 328 328
331 331 331 331 331 330 329 326 320 315 314 314 314 313 313 312 312 312 312 312 312 311 310 310 309 309 309 308 308 308 308 308 308 307 307 306 306 306 306 306 307 307 307 307 306 305 305 304 304 304 303 303 303 304 304 305 305 306 306 307 308 308 309 310 310 311 312 312 314 316 318 320 321 322 323 324 325 326 327 327 328 328 328 329 328
331 330 330 330 330 329 327 323 318 314 313 313 313 313 312 312 312 312 312 312 311 310 309 309 308 308 308 307 307 307 306 306 305 305 305 305 305 305 305 306 307 306 306 306 305 304 303 302 302 302 302 303 303 303 304 304 305 305 305 306 306 307 308 308 309 309 310 310 311 313 315 317 319 321 322 323 324 324 325 326 327 327 328 328 328
330 329 329 329 329 328 325 320 316 313 313 313 313 313 312 312 312 311 311 310 310 309 308 308 308 307 307 306 305 304 304 303 303 303 303 303 303 303 304 305 305 305 304 303 303 302 301 302 302 302 302 303 303 303 304 304 304 304 305 305 305 306 307 307 307 308 308 309 310 310 312 314 316 318 319 321 323 323 324 324 325 326 327 327 327
329 329 329 329 328 326 322 317 314 313 313 313 312 312 312 311 310 310 309 309 309 308 308 308 307 306 304 303 302 302 301 301 301 301 301 301 301 302 302 302 302 302 301 301 302 301 301 301 302 302 302 303 303 304 304 304 304 305 305 305 305 305 306 306 307 307 307 308 308 309 310 311 312 314 315 316 318 320 322 323 324 325 326 326 326
329 329 328 328 326 324 319 315 313 313 312 312 312 311 310 310 309 308 308 308 308 308 307 306 305 303 302 301 300 300 300 300 300 300 300 300 300 300 300 300 300 301 301 301 301 301 301 302 302 302 302 303 304 304 305 305 305 305 305 305 305 305 305 306 306 307 307 307 307 308 308 309 310 311 312 313 314 316 318 320 322 324 325 326 326
329 328 328 326 325 321 317 313 313 313 312 312 311 310 310 309 307 307 308 308 308 307 306 304 302 300 300 299 299 299 299 299 299 299 299 299 299 299 299 299 300 300 301 301 301 302 302 302 303 303 303 304 304 304 305 305 305 306 306 306 306 305 305 306 306 306 306 306 306 307 307 308 309 310 310 311 312 313 315 316 318 321 324 325 326
328 327 326 324 322 318 314 313 313 312 312 311 310 309 308 307 307 307 308 308 307 305 303 301 300 299 299 298 298 298 298 298 298 298 298 298 298 298 298 299 300 300 301 301 301 302 302 303 303 303 303 304 304 304 304 305 305 305 306 306 306 305 305 306 306 306 306 306 306 306 306 307 308 309 310 310 311 312 313 314 315 317 320 323 325
327 325 323 321 317 314 313 313 312 312 311 310 309 308 307 307 307 308 308 307 305 303 300 299 299 298 298 298 298 298 298 298 298 298 298 298 298 298 298 299 300 300 301 301 301 301 301 302 302 302 302 303 303 303 303 304 304 305 305 305 305 305 306 305 305 305 305 305 305 305 306 306 307 308 309 309 310 311 311 312 313 314 316 318 321
323 321 319 316 314 313 312 312 312 311 310 309 308 307 307 307 308 307 306 304 302 300 299 298 298 297 297 297 297 297 297 298 298 298 298 298 298 298 298 299 299 300 301 301 301 301 301 301 301 301 301 302 302 302 302 303 304 304 305 305 305 305 305 306 305 304 304 305 305 305 305 306 306 307 308 309 309 310 311 311 312 313 313 314 316
319 317 315 314 313 313 312 312 311 310 309 308 307 307 307 307 307 306 304 301 300 299 298 298 297 297 297 297 297 297 297 298 298 298 298 298 298 298 298 299 299 300 300 300 300 300 300 300 301 301 302 302 302 303 303 302 301 302 304 305 305 304 304 305 305 304 304 304 305 305 306 306 307 307 308 308 309 309 310 311 311 312 313 313 313
315 314 313 313 313 312 312 311 310 309 308 307 307 307 306 306 305 303 301 299 298 298 297 297 297 296 296 296 296 297 297 297 298 298 298 298 298 298 298 299 299 300 300 299 299 299 300 300 301 301 301 302 302 302 302 302 301 301 301 303 305 305 304 303 303 302 303 304 305 306 305 306 306 307 307 308 309 309 310 310 311 311 312 313 313
313 313 313 313 312 311 311 310 309 308 307 307 306 306 305 304 302 301 299 298 298 297 297 296 296 296 296 296 296 296 297 297 298 298 298 298 298 298 298 299 299 299 299 298 298 299 300 300 301 301 300 300 301 301 301 301 301 301 300 300 301 302 302 302 301 301 301 302 304 306 305 305 306 306 307 308 309 309 310 310 311 311 312 312 313
313 312 312 311 311 311 310 309 309 308 307 306 305 304 303 301 300 299 298 298 297 297 296 296 296 296 296 296 296 296 296 297 297 298 298 298 298 297 298 299 299 298 297 297 298 299 300 300 300 301 300 300 299 299 299 299 298 298 299 299 299 300 300 301 301 300 300 301 302 304 304 304 305 306 306 307 308 309 310 310 311 311 312 312 313
312 311 311 310 310 310 309 308 308 307 305 304 303 302 301 300 299 298 297 297 296 296 296 296 295 295 295 295 295 295 296 296 297 297 297 297 297 297 298 298 298 297 296 297 298 299 300 300 300 300 300 299 298 298 297 298 298 298 298 298 298 299 299 300 300 300 300 300 301 302 302 301 302 305 305 306 307 308 309 310 310 311 311 312 313
311 310 310 310 309 309 308 307 307 305 304 302 301 300 299 298 298 297 297 296 296 296 296 295 295 295 295 295 295 295 295 296 296 297 297 297 297 297 298 298 296 295 295 297 298 299 300 300 300 300 300 299 299 298 298 298 299 298 298 298 297 297 297 297 298 299 299 299 300 301 302 300 301 304 305 305 306 307 308 309 310 310 310 311 312
310 310 309 309 308 308 307 307 305 303 302 300 299 298 298 297 297 297 296 296 295 295 295 295 295 295 295 294 294 294 295 295 296 296 296 296 296 297 297 297 295 294 295 297 298 298 299 300 300 300 300 300 300 299 298 299 299 299 299 298 298 297 297 296 297 297 298 298 298 300 301 300 301 303 304 303 304 305 306 308 309 310 310 310 312
309 309 308 308 308 307 307 306 303 301 300 298 298 297 297 297 296 296 295 295 295 295 295 294 294 294 294 294 294 294 294 294 295 295 295 296 296 296 297 296 294 294 296 297 298 299 299 300 300 300 300 300 300 300 299 299 299 299 299 299 299 299 298 297 297 297 297 297 297 299 300 301 301 302 302 302 302 303 304 306 308 309 310 311 312
308 308 308 307 307 307 306 304 302 299 298 297 297 297 296 296 296 295 295 295 294 294 294 294 294 294 294 294 293 293 293 293 294 294 295 295 296 296 296 295 294 294 297 298 298 299 299 299 300 300 300 300 300 300 300 300 300 299 299 299 299 299 299 299 298 298 298 297 297 298 299 300 300 301 301 300 300 300 302 304 306 307 309 310 312
307 307 307 307 306 306 304 302 300 298 297 296 296 296 296 296 295 295 295 294 294 295 294 294 294 294 293 293 293 293 293 293 293 293 294 294 294 295 295 294 293 294 297 298 298 299 299 299 300 300 300 300 300 300 300 300 300 300 299 299 299 300 300 300 299 299 299 299 298 298 298 299 299 300 300 300 299 300 301 303 304 306 308 309 311
306 306 306 306 306 304 302 300 298 297 296 296 296 295 295 295 295 295 294 294 294 294 294 294 294 294 293 293 293 293 293 293 293 293 293 293 293 293 294 293 293 294 297 298 298 298 299 299 299 300 300 300 300 300 300 300 300 300 300 300 300 300 300 300 300 300 299 299 299 298 298 298 298 299 300 299 299 300 301 303 304 305 307 308 310
305 306 306 305 305 303 300 298 297 297 296 295 295 295 295 295 295 294 294 294 294 294 294 294 294 293 293 293 293 293 293 293 293 292 292 292 293 293 293 292 292 293 296 297 298 299 299 299 299 299 300 300 300 300 299 299 299 299 299 299 299 299 299 299 299 299 299 299 299 299 298 298 298 299 299 299 299 299 300 302 303 305 306 307 308
304 305 305 305 303 301 299 298 298 297 297 296 295 295 295 294 294 294 294 294 294 294 294 294 294 293 293 293 293 293 293 293 293 293 293 292 292 292 292 292 292 292 294 296 297 298 299 299 299 299 299 299 299 299 299 299 299 298 298 298 298 299 298 298 298 299 299 299 299 299 299 299 299 298 299 299 299 299 299 300 301 303 305 306 307
304 304 304 304 302 300 299 298 298 298 297 296 295 294 294 294 294 294 294 294 294 294 294 294 293 293 293 293 293 293 293 293 293 293 293 292 292 292 292 292 292 292 293 294 296 298 298 299 299 299 299 299 298 298 298 298 298 298 298 298 297 298 298 298 298 298 298 299 299 299 299 299 299 299 298 298 298 299 299 299 300 301 302 304 306
Wind_Speed
10 10 10 9 8 7 6 5 4 4 3 3 2 3 3 4 5 6 6 7 7 7 8 9 10 11 12 12 12 13 13 13 13 14 15 16 15 15 15 14 14 14 13 12 13 14 16 18 18 18 16 18 18 18 18 15 14 14 13 13 11 10 11 12 13 13 12 11 9 7 7 8 9 9 9 9 9 7 7 7 6 6 6 5 4
10 10 10 8 7 6 5 4 3 3 3 3 3 3 4 4 5 5 7 7 7 8 8 9 10 10 11 11 11 12 12 13 13 14 15 15 15 14 14 14 13 13 12 11 12 13 15 16 18 18 17 17 18 18 18 17 16 14 13 13 12 10 11 12 13 13 12 11 10 8 7 8 9 9 10 10 10 8 8 8 8 7 7 6 5
11 10 9 7 7 6 5 4 3 3 3 3 3 3 4 4 5 6 7 8 8 8 8 9 9 10 9 10 10 11 11 12 12 14 14 14 14 14 13 13 12 12 12 12 12 13 15 16 17 18 17 16 16 17 17 17 17 14 13 13 13 12 13 13 13 13 12 11 11 10 7 8 9 10 10 10 10 9 9 9 9 8 8 7 6
11 9 8 6 5 5 5 5 4 4 3 3 3 3 4 5 6 7 8 8 7 7 8 8 9 9 9 9 9 10 10 11 11 12 13 13 13 12 12 11 11 11 11 12 12 13 14 15 16 17 17 17 16 17 16 17 17 14 13 13 13 14 14 14 13 13 12 11 11 11 9 7 9 10 11 11 10 10 10 10 10 9 8 8 8
10 7 6 5 4 5 5 5 4 3 3 3 3 4 5 6 7 7 7 6 7 7 7 8 8 8 9 9 9 9 10 10 11 11 12 12 12 12 11 10 10 10 10 10 11 12 13 13 14 15 16 17 16 16 16 16 16 15 14 13 13 14 15 15 13 13 13 11 11 11 10 8 8 9 10 11 11 11 11 12 11 11 10 9 9
8 6 5 5 4 4 5 5 4 3 3 4 4 5 6 6 6 6 6 6 7 8 8 8 8 7 8 9 9 9 10 10 10 10 11 11 12 12 11 10 9 9 9 9 10 10 11 11 12 13 14 15 16 16 16 16 16 16 15 14 13 14 15 15 14 14 13 12 11 10 10 9 8 9 10 11 12 12 12 13 12 12 11 11 10
5 4 5 5 5 5 5 4 3 4 5 5 5 5 5 5 5 5 6 7 7 8 8 8 7 8 8 9 9 10 10 11 11 11 11 12 11 11 10 9 8 9 9 9 9 8 9 10 10 11 12 13 14 15 16 16 16 16 16 15 14 15 15 15 15 15 14 14 12 11 10 10 9 9 10 11 12 13 13 14 14 13 12 12 11
2 3 5 6 5 6 6 4 4 4 5 6 6 5 5 5 5 5 6 7 8 8 9 9 8 9 9 9 9 10 11 11 11 11 12 11 10 10 9 8 8 10 11 9 8 8 8 8 8 9 10 11 12 13 15 15 16 16 16 16 16 15 15 16 16 16 15 15 14 12 11 12 11 9 10 11 13 14 13 14 15 15 14 14 13
1 3 5 5 5 6 6 5 5 5 5 6 6 5 4 4 4 6 7 8 8 9 9 9 10 10 10 10 9 10 11 11 11 11 11 11 10 10 8 8 10 11 10 10 10 9 9 8 8 8 9 9 10 11 12 13 15 15 15 16 16 16 16 17 17 17 17 16 15 15 13 13 12 10 9 10 13 14 14 14 15 16 16 15 15
2 3 5 5 5 6 6 5 6 6 6 7 7 6 5 4 5 6 7 8 9 9 9 9 10 11 10 10 9 10 10 9 10 11 11 10 9 9 9 10 11 11 10 11 12 11 11 10 9 9 9 9 9 10 11 11 13 14 15 16 17 17 17 17 17 18 18 18 17 16 15 14 13 12 11 10 12 16 16 15 15 17 17 16 17
4 5 5 5 5 5 5 5 6 7 7 7 7 6 5 5 5 6 7 9 10 11 11 10 11 12 11 11 10 10 10 9 10 10 8 7 8 9 10 10 10 10 11 11 12 13 13 13 12 12 11 10 10 11 11 11 12 12 13 14 16 17 17 16 17 18 19 19 19 18 16 16 16 15 14 12 12 15 18 17 16 17 19 18 18
7 7 6 5 5 5 5 6 7 7 7 7 7 6 6 6 6 6 7 9 10 11 12 12 13 13 12 11 10 10 10 9 8 7 7 7 9 10 9 8 9 11 12 12 13 14 14 14 14 14 14 13 12 12 13 13 13 13 13 13 15 17 17 17 17 17 19 19 19 19 19 17 17 18 17 15 13 14 17 18 18 18 20 20 19
8 8 7 6 5 5 6 7 7 7 6 7 7 7 7 7 6 6 7 9 11 11 12 13 14 15 14 9 7 9 8 6 6 7 7 7 11 12 9 9 10 12 13 13 14 14 14 15 15 15 15 15 14 14 14 14 15 15 15 15 15 16 17 17 17 18 18 20 20 20 20 19 18 19 19 17 15 14 15 17 19 19 21 22 22
9 8 8 7 6 7 7 8 7 7 7 8 8 8 8 7 8 8 9 10 11 12 13 14 15 17 17 12 8 7 6 7 6 6 8 10 13 14 12 12 14 15 15 15 14 15 15 16 16 16 16 16 16 16 16 16 16 16 17 18 17 16 17 17 17 18 19 20 21 21 21 21 20 20 20 20 18 15 15 16 18 20 22 23 23
8 8 8 7 7 8 8 8 7 7 7 8 8 8 8 8 9 10 10 11 12 14 15 16 16 17 16 15 13 11 9 7 6 7 10 11 12 12 13 15 16 16 17 16 17 17 17 17 17 17 17 17 17 18 18 18 18 18 18 18 19 18 19 18 16 18 21 21 21 21 21 22 23 22 21 21 21 18 16 15 16 19 23 24 23
8 8 7 6 6 7 8 8 7 6 7 7 7 8 8 9 10 10 11 12 13 15 16 17 18 17 15 14 13 13 11 11 15 15 9 7 10 13 15 16 16 17 20 20 19 18 17 16 16 16 17 17 17 18 19 19 19 19 19 19 19 20 20 21 19 18 19 20 21 23 22 22 23 24 23 22 22 21 19 16 16 17 23 26 24
8 7 7 6 6 6 7 7 6 6 6 7 7 8 9 9 10 12 13 13 14 15 16 17 18 17 15 12 9 9 11 17 22 18 10 10 13 13 14 17 19 21 23 22 20 18 17 16 16 16 15 16 16 17 18 18 18 19 19 20 20 21 21 22 23 20 18 17 19 22 22 22 24 26 25 23 23 24 22 20 18 17 20 27 27
8 7 7 6 7 6 6 5 5 6 7 8 9 9 10 11 12 14 15 15 15 15 16 17 16 15 13 12 10 10 15 19 19 18 19 19 15 15 20 24 25 24 23 22 20 19 18 17 17 16 15 15 15 15 15 16 17 17 17 18 19 20 21 22 23 23 21 18 17 19 20 22 25 27 25 24 25 26 25 24 21 19 19 25 29
8 7 7 7 8 7 6 5 6 7 8 9 10 11 11 13 14 16 16 17 17 16 16 16 14 13 12 12 12 13 16 17 17 19 22 22 22 23 26 27 27 26 25 25 23 21 18 16 16 16 15 15 15 15 15 15 15 15 16 17 17 18 20 21 22 24 24 21 17 18 19 20 22 24 25 27 27 26 26 27 25 22 19 22 29
8 7 8 8 8 7 6 6 7 8 9 10 11 12 13 15 16 17 18 18 18 18 17 16 14 12 12 12 12 13 15 16 17 18 19 24 29 27 24 24 25 25 25 24 23 21 17 15 15 16 16 17 17 16 16 16 15 15 16 16 17 17 18 19 20 21 24 24 20 19 19 19 19 21 23 27 28 27 28 28 28 26 22 21 26
8 8 8 8 7 6 6 7 8 9 10 12 13 15 16 16 17 18 19 19 19 18 17 16 15 14 14 14 13 13 14 15 16 16 17 20 24 25 25 26 26 24 22 20 19 17 15 15 16 17 19 19 19 18 18 19 18 17 17 16 16 17 18 18 19 19 21 22 22 21 20 18 17 18 20 23 26 28 31 31 30 29 26 22 24
10 9 9 8 7 6 6 8 9 11 13 15 17 17 17 17 17 17 17 18 18 18 17 16 16 16 17 16 16 15 15 15 16 16 16 15 18 23 24 25 27 26 22 20 17 14 12 13 15 17 19 19 18 18 18 19 20 20 19 20 19 18 19 19 19 19 19 20 21 22 21 18 17 16 17 20 23 26 30 32 32 31 30 26 24
11 10 9 8 7 7 8 9 11 13 16 18 19 18 17 16 15 15 15 16 16 16 16 15 16 16 16 16 17 17 17 18 18 18 18 17 19 23 24 25 26 26 24 22 18 14 11 13 15 17 18 19 19 19 19 20 21 21 20 21 22 22 21 21 20 19 19 19 20 21 22 20 18 16 16 19 21 22 25 30 34 34 32 30 27
12 11 10 8 8 9 10 11 12 15 18 20 19 17 15 14 14 14 14 14 14 14 14 14 14 14 14 15 16 17 17 17 18 17 17 17 19 22 24 25 27 26 25 23 20 17 14 15 18 18 19 20 20 20 21 21 22 22 21 21 22 23 23 23 23 22 21 20 19 20 22 22 19 17 18 20 21 22 23 25 30 34 36 33 30
12 11 10 10 10 11 11 12 15 18 19 18 16 14 12 12 12 12 12 12 12 12 12 12 12 12 13 14 14 15 16 16 16 15 15 16 17 20 22 24 26 27 26 24 22 20 17 18 19 19 21 21 21 21 22 23 23 24 23 22 22 23 23 23 24 24 24 23 21 20 21 22 21 19 20 21 22 23 24 23 24 31 38 36 32
12 11 11 10 10 11 12 14 16 17 16 14 12 10 10 10 10 10 10 10 11 11 10 10 11 12 13 13 14 14 14 15 15 15 15 16 17 20 22 25 26 26 26 25 24 22 21 21 21 22 23 22 22 23 23 24 24 24 25 25 24 24 24 24 24 24 24 24 24 22 21 22 22 22 21 22 23 23 25 25 25 28 35 37 35
11 10 9 9 10 11 13 15 16 14 12 10 8 8 8 8 8 9 9 9 9 9 9 10 11 11 12 13 13 13 14 14 14 14 15 16 18 19 21 24 27 28 29 28 26 25 23 23 25 26 27 26 26 25 25 25 25 25 26 26 26 25 25 25 25 26 25 25 26 25 24 23 22 23 23 23 23 24 25 26 26 28 29 32 36
10 8 8 9 10 12 14 15 14 11 9 7 7 7 7 7 8 8 7 7 8 9 10 10 11 12 12 12 13 13 13 13 13 13 14 15 17 18 19 21 23 26 29 31 31 29 26 27 30 31 31 31 30 27 26 25 24 24 25 25 27 26 26 27 26 27 27 26 27 27 26 25 24 23 24 24 24 25 26 26 26 28 28 28 33
9 8 8 10 11 13 14 15 12 9 7 7 7 7 7 7 8 7 7 7 9 10 10 10 11 11 11 12 12 12 12 12 12 13 13 14 15 16 18 18 18 19 21 25 29 29 29 32 33 33 32 32 31 29 26 25 24 24 24 24 25 26 27 27 27 27 27 27 27 27 27 27 26 25 25 25 25 26 27 27 26 26 26 27 30
8 8 10 11 12 13 15 13 10 7 7 7 6 6 6 6 7 7 8 8 10 10 10 10 10 10 11 11 11 11 11 11 12 12 13 13 14 14 16 16 16 16 16 19 25 28 29 31 31 31 32 31 31 30 28 27 26 24 23 23 22 24 25 26 26 26 26 26 26 27 28 28 28 27 26 26 27 27 27 27 26 25 25 25 27
8 10 11 12 13 14 14 12 9 7 6 5 4 4 5 6 7 7 8 9 9 9 9 9 9 9 10 10 10 10 11 12 12 13 13 14 14 15 15 14 15 17 16 17 23 26 28 30 30 30 31 31 30 30 29 28 28 26 25 24 23 22 22 23 24 24 24 24 25 25 26 27 28 29 28 28 28 28 27 26 25 25 26 26 26
9 10 12 13 14 14 13 10 7 5 3 2 2 3 5 6 7 7 8 8 8 8 9 9 9 10 10 11 11 11 12 13 13 13 14 15 15 16 16 16 16 19 20 19 23 27 28 29 29 28 28 28 27 28 29 28 27 27 26 25 24 23 21 21 21 22 22 22 22 23 24 26 27 28 29 29 29 29 28 26 25 25 26 27 28
10 11 12 13 13 13 10 8 5 2 0 1 2 4 5 6 7 7 7 6 7 8 9 9 10 11 12 12 12 13 13 14 14 14 15 16 17 17 18 19 21 22 23 23 24 29 29 28 28 27 26 27 26 27 28 28 27 27 26 25 25 23 22 21 20 20 21 21 21 21 21 23 25 26 28 28 29 30 29 28 27 26 26 26 28
11 11 12 12 13 11 9 6 3 1 2 3 4 5 6 6 6 6 5 5 7 8 9 9 11 12 12 13 13 14 14 14 15 16 18 18 19 20 21 22 23 24 24 24 25 29 31 31 30 30 29 29 30 31 31 32 31 28 25 24 25 25 23 21 20 19 20 20 20 19 19 19 21 23 26 27 28 29 30 30 29 28 28 28 28
11 11 11 12 11 9 7 4 2 3 4 4 5 5 6 6 6 6 5 6 7 8 9 10 12 13 13 13 14 15 15 15 17 18 19 20 21 22 23 24 24 25 24 25 27 29 31 33 33 34 34 33 34 35 35 35 34 33 30 28 29 28 26 23 21 18 18 19 19 17 16 17 18 21 23 25 27 28 29 30 30 29 29 29 30
11 11 11 11 9 7 5 3 4 4 4 5 5 5 5 5 5 6 6 6 7 8 10 12 13 13 13 14 15 16 16 16 18 20 21 22 23 24 25 26 26 26 27 27 29 30 32 34 34 36 36 36 36 36 37 36 35 35 34 34 34 33 30 28 25 21 18 17 17 16 15 15 16 18 21 23 25 26 28 29 30 31 30 30 31
11 10 10 9 7 5 5 5 4 4 4 4 4 4 4 5 5 5 6 7 8 10 11 12 13 13 14 15 16 17 17 19 20 22 23 24 25 26 28 28 28 29 30 30 31 32 33 35 36 36 36 36 36 37 38 39 38 37 36 36 37 37 35 32 29 26 22 18 17 16 15 15 15 16 18 21 23 25 27 28 29 31 31 31 31
9 9 8 7 6 6 6 6 5 4 4 4 4 4 4 5 5 6 7 8 9 11 11 12 13 14 15 16 17 18 18 20 21 22 23 25 26 28 29 30 30 31 32 33 33 34 35 36 37 37 37 37 38 38 39 40 40 40 39 38 37 38 38 36 33 30 28 24 19 17 16 16 15 15 16 17 20 23 25 27 29 30 32 32 31
8 8 8 8 8 8 7 7 6 4 3 3 3 4 5 6 6 7 8 9 10 11 11 12 14 15 16 17 18 19 19 20 21 23 24 25 26 28 29 30 31 32 33 34 34 35 36 37 38 38 38 37 39 39 39 39 39 39 40 40 40 39 39 38 36 33 31 28 22 17 17 17 14 13 14 15 17 21 23 25 28 30 32 33 32
9 9 9 11 12 11 9 7 5 3 3 3 4 6 7 7 8 8 9 9 10 11 11 13 15 16 18 19 20 20 20 20 21 22 23 25 26 28 29 29 30 31 32 34 35 36 37 38 38 38 37 37 38 40 41 41 41 39 39 39 40 40 39 38 36 33 32 31 27 21 20 19 15 11 12 13 15 18 20 22 25 28 30 32 33
11 12 13 13 12 10 8 6 5 4 4 5 7 8 8 8 8 8 9 10 10 11 12 14 16 18 18 19 20 20 20 20 20 20 22 23 26 27 28 29 30 31 32 33 34 36 37 37 37 38 38 38 39 39 41 41 40 39 38 37 37 39 39 38 35 32 32 33 32 28 27 25 20 15 13 13 13 15 18 20 23 26 28 29 30
13 14 14 11 9 8 7 7 6 5 6 8 10 10 9 9 8 8 9 10 11 12 14 16 17 19 19 20 20 20 19 19 18 19 20 22 24 25 26 27 29 30 31 32 33 35 35 35 35 36 37 38 37 38 39 39 38 38 39 39 39 39 40 40 37 34 33 35 36 34 32 29 25 22 19 18 16 15 16 18 20 23 25 26 27
13 13 11 10 10 9 8 7 6 6 8 11 11 11 10 9 8 8 9 10 11 13 15 17 18 19 20 20 20 20 19 18 18 18 19 21 22 23 24 25 27 28 28 30 31 32 33 33 33 34 35 36 36 37 38 39 39 39 40 39 39 40 41 42 40 38 37 37 38 37 31 26 24 23 20 20 19 18 17 17 19 21 23 24 24
13 13 12 12 12 10 8 7 7 9 11 12 12 11 10 9 8 8 9 10 11 14 16 18 19 19 20 20 20 20 20 19 18 18 19 21 21 22 22 24 26 26 25 25 27 29 30 30 30 31 33 34 36 36 37 38 39 40 40 40 41 40 40 39 38 38 39 39 39 36 31 27 24 21 19 18 19 19 19 19 20 21 21 22 22
13 14 14 13 12 10 8 8 9 12 13 14 13 11 10 10 9 9 9 11 13 15 17 18 18 19 19 19 19 20 20 20 20 19 20 20 20 20 21 23 25 25 24 24 24 26 27 28 28 30 31 33 34 36 36 37 38 39 40 41 42 41 40 38 36 37 40 41 39 36 34 33 29 25 22 19 17 18 19 20 21 21 20 20 20
14 15 15 13 12 10 9 9 11 14 15 15 13 12 11 10 9 9 10 12 14 15 17 17 18 18 18 18 18 20 20 21 21 21 20 19 19 20 21 23 25 25 25 25 26 26 26 26 27 28 29 31 32 34 35 36 37 38 39 40 41 41 40 39 37 38 41 42 39 37 37 36 34 31 24 17 16 18 19 20 21 22 21 20 19
14 15 15 13 12 11 10 11 13 16 16 15 14 12 11 10 9 10 11 12 13 15 16 17 17 17 17 17 18 19 20 21 22 21 21 20 20 20 21 23 24 25 26 26 27 27 26 26 27 28 28 29 31 32 34 35 36 37 37 38 39 40 40 40 39 40 43 43 41 39 38 38 36 33 22 13 17 21 19 19 20 20 21 21 20
15 15 14 13 11 12 13 13 15 17 17 16 14 12 11 10 9 10 10 11 12 14 15 16 16 16 16 16 17 18 19 20 21 21 21 21 21 21 22 22 23 25 25 26 26 26 26 26 27 28 28 29 30 31 32 34 35 37 37 38 39 40 41 42 41 42 44 44 42 40 39 38 38 33 21 14 20 24 19 18 18 17 18 19 20
17 16 15 14 12 13 14 15 16 17 17 16 14 12 11 10 9 8 9 10 11 12 13 14 14 14 15 16 16 17 18 20 21 21 21 21 21 22 22 22 23 25 25 25 25 25 26 26 27 27 28 28 29 30 31 33 34 36 38 39 40 41 43 43 43 42 42 44 43 40 39 39 38 35 25 17 21 26 24 20 17 14 14 14 15
18 18 16 16 15 14 15 15 15 15 15 15 13 12 10 9 8 8 8 9 10 11 12 12 13 13 14 15 15 16 17 19 20 20 20 21 21 22 23 22 23 25 26 25 25 25 25 25 26 27 27 28 29 30 31 32 34 35 37 38 39 40 41 42 42 42 41 43 44 41 39 40 39 37 32 25 24 27 28 27 23 17 14 12 11
19 19 17 17 17 16 16 15 13 12 14 15 13 11 10 9 7 7 7 8 8 9 10 11 11 12 13 13 14 16 17 17 18 18 19 20 21 22 23 23 24 25 25 24 24 24 24 25 26 27 27 28 29 30 31 32 33 34 35 36 37 38 40 40 40 41 41 42 43 40 39 40 39 37 37 34 32 31 32 33 31 27 23 20 14
Wind_Direction
175 174 173 169 163 156 151 150 151 157 170 182 201 222 229 236 244 253 258 260 263 268 273 278 283 287 292 297 299 302 305 308 309 309 308 305 304 304 303 301 302 304 305 307 309 311 313 315 314 313 316 319 318 316 315 310 302 303 307 309 313 319 325 333 338 341 345 349 341 318 297 286 275 264 261 252 248 242 208 197 197 198 208 209 199
178 177 177 173 166 163 164 165 166 174 198 217 228 233 234 239 248 263 271 272 276 280 285 289 291 292 296 302 306 309 312 313 313 312 311 309 307 306 304 304 305 307 309 311 312 312 311 312 312 313 315 317 320 320 320 318 311 305 302 302 305 311 320 326 331 334 338 346 346 329 297 283 277 268 265 259 256 246 214 201 202 201 208 212 204
177 175 175 174 174 178 182 188 195 198 214 235 240 248 258 268 282 295 296 293 294 295 298 301 302 303 304 307 311 314 314 314 314 311 310 308 307 307 307 307 308 310 312 313 312 310 309 309 309 311 313 315 318 320 320 319 317 310 300 298 296 298 309 316 321 327 331 339 345 339 312 282 275 270 266 261 258 248 222 208 206 205 207 211 207
174 174 174 176 185 193 197 200 205 202 212 239 259 282 292 299 306 308 305 301 300 301 303 306 308 311 310 309 310 311 312 312 310 307 306 307 308 310 313 314 316 317 320 318 316 313 310 310 309 309 312 314 315 318 319 316 315 314 305 299 294 292 297 303 310 318 321 329 339 342 328 292 273 271 268 261 257 249 230 212 208 211 209 209 207
174 176 180 185 198 211 214 211 207 207 221 248 272 293 299 304 308 305 301 300 302 303 305 307 309 310 308 308 308 308 311 310 307 304 305 307 311 315 319 320 323 326 329 328 325 321 318 316 313 311 311 313 315 317 318 315 313 312 306 298 294 292 291 293 301 309 312 317 326 336 334 309 278 272 270 262 254 249 235 218 211 212 210 209 211
176 181 193 201 215 232 238 229 223 235 250 258 269 283 290 296 301 300 300 302 303 301 301 304 308 310 310 309 308 309 311 309 306 307 308 310 314 317 319 320 324 330 333 333 331 329 327 325 321 318 314 315 317 317 319 317 311 309 306 298 294 294 289 286 292 299 304 307 311 320 328 321 293 274 271 264 254 247 240 226 215 211 211 210 213
175 193 210 214 228 247 251 243 245 256 259 258 260 269 278 287 294 295 294 293 294 295 299 307 314 316 315 314 314 315 313 309 308 309 311 314 317 318 320 320 323 328 327 327 330 330 329 330 328 326 323 322 321 320 321 319 314 310 305 297 295 296 288 281 284 290 296 301 303 305 314 321 309 282 270 265 255 246 243 233 221 213 212 214 215
184 217 219 223 239 256 260 257 266 268 262 257 260 266 271 280 286 285 283 285 289 295 302 311 316 316 315 317 319 318 312 308 308 308 311 317 319 320 320 320 323 323 320 318 319 319 321 324 325 324 324 323 323 323 322 320 318 314 309 303 299 297 288 281 280 282 289 297 303 302 305 314 315 297 273 264 255 246 243 241 228 215 213 216 216
294 239 221 231 251 266 270 271 275 274 264 259 260 264 268 274 278 281 285 291 293 295 302 309 313 314 316 318 317 313 309 308 308 307 312 315 314 317 319 320 321 318 313 310 310 310 311 311 311 311 311 311 314 317 319 318 316 314 312 309 304 299 290 283 278 276 281 290 298 301 302 306 312 310 290 269 258 248 243 244 234 218 213 216 216
279 233 226 241 258 268 269 270 273 270 264 259 259 264 270 272 271 281 292 298 298 299 304 310 313 316 318 317 312 308 307 308 308 308 312 313 311 314 315 313 314 312 309 306 305 305 304 302 298 295 294 295 297 301 306 309 310 309 309 310 307 303 294 286 280 275 275 280 287 293 297 298 302 308 307 289 265 253 245 243 237 222 213 215 217
249 232 233 244 256 262 264 268 267 261 259 259 262 267 266 265 267 281 295 299 300 304 310 315 317 320 323 319 312 307 306 307 306 306 313 316 314 315 312 307 306 307 307 305 304 303 301 299 295 291 289 290 291 291 292 295 300 301 300 304 305 303 300 293 286 279 275 275 277 281 287 289 291 296 303 302 282 262 251 243 237 225 215 215 216
250 241 232 234 247 255 257 257 253 250 256 259 263 264 260 266 275 286 297 300 303 308 311 315 317 320 322 318 309 304 304 304 304 302 307 315 318 317 309 302 305 310 309 306 306 306 304 303 300 297 294 292 292 290 289 290 293 294 291 294 297 296 297 296 292 285 279 275 272 273 278 280 284 287 291 297 292 276 261 248 239 226 217 216 216
256 244 230 225 232 242 243 237 237 242 253 261 264 265 265 274 289 299 304 303 305 306 309 315 318 322 326 325 316 311 307 304 306 297 290 306 317 312 298 291 301 310 309 305 306 307 305 306 305 303 299 294 291 287 286 286 289 291 288 289 292 289 288 291 294 292 285 278 271 270 276 277 279 282 283 286 287 282 272 258 245 229 219 217 217
258 241 226 222 222 228 229 225 231 242 253 262 266 270 277 290 303 309 308 307 308 309 313 318 321 325 330 333 335 329 312 302 306 291 276 290 302 298 288 286 294 305 307 304 304 306 306 309 308 304 299 294 290 286 285 284 285 287 286 288 290 287 286 289 294 293 286 281 275 269 273 276 276 278 278 277 277 277 274 269 254 234 221 217 219
252 233 225 224 224 226 228 230 239 252 259 265 271 281 292 303 309 310 308 310 314 315 317 320 322 326 329 330 331 329 320 306 305 304 290 287 290 289 287 288 293 303 308 307 308 309 311 313 310 305 299 295 291 289 288 287 286 287 287 288 289 289 289 291 294 292 286 284 282 276 274 274 272 272 274 274 275 276 275 275 268 244 224 217 219
243 232 229 228 231 232 236 240 248 259 265 269 277 290 300 305 306 308 310 314 316 316 318 320 322 326 329 329 329 328 322 312 316 320 311 290 294 297 296 295 299 307 311 314 316 318 321 319 314 310 305 299 295 293 292 291 289 288 288 288 288 287 287 288 289 290 287 284 281 279 276 274 272 270 270 271 272 274 275 273 273 257 231 219 218
240 237 235 233 237 239 242 248 256 267 274 280 289 297 302 305 308 310 313 315 315 315 317 320 322 325 329 331 330 322 312 315 321 322 316 308 304 301 302 304 308 312 315 317 318 320 326 326 322 319 314 307 303 300 298 296 293 291 291 291 290 288 287 286 284 286 290 288 280 276 273 274 273 268 265 268 267 267 270 270 269 264 242 224 219
241 240 239 239 241 246 252 258 268 274 280 289 295 302 305 308 311 313 315 315 314 314 315 319 321 324 329 330 329 317 310 316 320 314 312 314 310 310 314 316 318 320 321 322 321 321 325 327 324 323 319 314 310 306 304 302 301 299 297 295 294 293 291 290 286 285 288 290 284 275 270 270 272 269 267 269 268 265 267 269 266 263 253 233 222
242 241 239 242 247 253 258 264 273 278 285 293 300 307 310 312 312 312 313 313 312 313 314 317 320 322 325 326 324 316 311 314 314 312 314 312 310 313 316 317 320 323 326 328 328 329 330 328 321 318 317 314 312 310 306 304 305 305 303 299 296 294 293 293 292 288 286 286 282 274 270 269 271 271 270 268 267 265 264 265 264 260 256 242 227
244 244 241 242 249 255 259 268 278 284 290 298 304 309 310 310 310 310 311 311 311 312 312 315 317 318 319 319 317 312 309 308 306 306 306 304 308 314 315 315 318 321 327 330 332 336 336 330 320 314 311 309 308 307 305 304 305 305 305 304 300 297 295 296 297 296 292 290 283 274 270 269 268 267 268 268 265 261 260 260 260 258 254 247 234
244 243 240 241 248 256 266 278 284 289 294 301 305 306 307 308 308 308 308 309 310 311 312 314 316 318 320 320 319 316 312 308 304 303 303 304 309 316 321 323 326 333 340 342 343 346 340 329 322 317 312 311 311 308 304 303 302 303 305 307 306 304 301 299 299 300 299 298 292 282 273 269 268 265 262 265 263 258 258 257 255 255 253 247 238
240 239 238 242 251 261 276 284 288 294 299 303 303 303 303 304 305 305 306 308 310 312 314 316 318 322 325 326 327 328 327 326 325 325 326 322 316 319 327 333 336 344 354 356 357 357 343 328 324 322 319 321 323 319 312 308 305 303 303 304 305 304 303 301 300 300 300 299 296 290 281 270 268 271 265 260 260 258 258 257 255 255 253 247 239
236 236 238 244 253 265 276 284 292 299 301 302 302 301 301 301 303 305 307 308 310 312 315 319 323 326 329 332 335 338 339 339 339 338 337 334 326 328 335 338 338 346 353 353 355 356 343 327 325 327 325 326 327 325 321 317 312 308 305 304 303 301 300 299 299 301 302 300 295 290 287 278 270 267 262 258 259 260 258 256 254 252 250 248 240
232 235 241 248 259 270 280 291 300 303 302 301 299 299 300 301 305 308 309 309 310 314 320 324 328 330 334 339 342 342 342 341 340 339 339 339 336 336 339 339 338 343 347 347 347 347 340 327 326 329 327 325 325 322 319 316 313 311 308 305 303 301 300 297 296 295 297 300 297 291 287 284 278 267 258 255 255 255 256 257 256 252 249 248 242
229 235 243 253 268 284 296 305 307 306 303 300 297 297 300 305 310 313 313 313 316 322 326 330 335 339 342 345 346 345 343 343 344 345 346 346 342 338 340 340 338 338 341 341 342 343 338 330 329 329 327 326 324 321 320 318 316 314 311 309 306 303 301 298 296 292 291 292 294 292 287 284 282 273 263 259 257 253 250 251 254 252 246 243 243
233 241 252 267 286 302 310 310 309 307 303 299 298 300 306 313 317 319 321 322 325 330 335 342 346 346 347 347 348 349 349 350 351 351 351 349 346 343 341 338 335 334 336 338 340 341 338 333 331 329 328 327 325 323 322 320 318 315 312 311 308 305 301 299 297 293 290 288 287 287 286 284 281 277 270 264 263 260 253 248 247 247 244 241 244
243 253 267 285 300 307 309 311 310 306 302 303 306 312 318 323 325 327 329 331 333 340 347 352 351 350 350 352 354 356 356 357 356 355 353 349 347 345 341 339 336 334 335 337 338 340 338 334 332 331 332 333 330 327 324 320 317 314 311 309 307 305 303 301 299 297 293 290 287 283 282 281 279 278 275 270 267 265 261 255 248 246 246 243 241
247 260 277 292 302 306 312 315 311 305 304 309 313 321 329 332 332 332 335 338 345 353 358 359 357 357 358 359 1 2 2 2 360 356 352 349 346 344 343 343 342 338 337 336 336 338 339 336 334 335 337 338 336 333 327 322 316 312 309 307 306 305 303 302 301 300 298 294 291 287 282 279 277 275 274 272 269 266 265 262 255 248 246 245 240
250 268 286 297 302 309 316 315 309 304 305 307 315 329 337 335 332 335 343 354 3 7 7 6 3 4 6 5 6 6 4 2 358 354 351 349 349 347 345 346 347 345 342 335 332 335 337 338 339 339 340 341 342 340 336 331 326 320 315 311 307 304 303 302 302 302 302 299 295 291 287 282 279 275 273 271 269 266 265 265 262 253 246 244 242
257 276 290 298 303 312 317 314 304 298 299 306 323 339 339 333 336 348 1 11 14 12 11 10 10 12 10 8 7 6 4 2 359 358 359 357 356 354 352 350 346 344 343 333 329 334 339 341 345 346 345 345 345 343 341 339 336 332 326 320 314 308 304 303 302 302 301 300 298 294 290 286 283 279 275 273 270 267 265 264 264 259 250 244 241
268 283 292 299 307 314 316 310 296 292 302 317 337 344 339 342 355 7 13 17 14 11 13 16 16 15 12 10 9 8 9 9 7 6 5 4 1 359 356 351 343 341 345 339 333 341 350 350 352 354 351 350 349 345 345 343 339 338 335 330 325 318 311 305 303 302 300 299 297 294 291 287 284 281 278 276 273 270 266 263 263 261 256 250 244
276 286 293 300 307 311 310 301 291 293 311 337 354 354 357 3 13 16 16 16 13 15 19 18 16 16 17 18 17 19 20 15 13 12 10 9 7 5 3 1 0 359 1 358 346 350 2 1 356 357 354 353 353 350 348 346 342 341 340 336 332 327 320 312 305 303 302 300 297 294 291 287 285 282 280 278 276 273 269 264 260 259 258 256 252
276 283 290 298 303 304 299 289 283 286 47 78 40 26 21 20 21 17 16 21 22 23 22 19 21 25 25 25 25 27 26 21 21 21 21 20 17 17 18 16 18 15 9 7 358 356 5 8 1 1 360 357 358 358 356 354 350 347 344 340 337 335 330 322 313 306 303 302 301 297 292 288 284 282 281 279 277 275 272 268 261 256 255 256 256
271 277 285 293 295 292 284 272 255 164 110 75 50 39 31 22 19 21 29 37 31 26 25 27 33 35 32 31 33 33 31 30 32 31 29 29 26 25 26 23 23 21 13 9 5 360 4 8 5 4 7 5 2 2 2 360 358 356 353 349 346 346 342 333 322 313 306 304 303 300 296 290 284 281 279 279 278 276 274 272 267 260 253 252 253
264 273 282 285 282 275 262 238 179 128 93 67 54 43 30 20 25 41 52 49 37 32 36 40 42 41 37 38 41 42 40 37 38 38 35 33 31 29 29 27 24 22 17 12 9 4 3 6 6 3 5 6 3 0 0 359 358 358 359 358 356 355 353 346 335 323 313 308 306 302 298 292 286 282 278 277 277 276 274 273 271 266 258 252 251
263 269 273 270 262 253 227 176 135 109 83 68 56 39 29 33 50 63 61 52 48 47 49 48 46 42 40 43 48 48 44 42 41 41 37 34 33 31 29 28 25 22 20 16 13 9 4 5 7 5 2 2 2 360 358 356 357 358 357 356 355 355 356 354 349 340 327 316 312 310 306 299 291 285 280 277 276 275 274 273 271 269 264 258 253
261 259 255 246 233 209 168 139 120 103 87 71 54 40 46 64 73 71 66 61 60 59 56 52 49 46 44 47 51 49 44 43 42 40 37 34 32 30 27 25 24 23 21 19 16 13 9 6 7 7 5 2 3 2 360 358 358 358 357 355 354 353 354 355 354 350 341 330 326 326 318 306 297 289 282 278 275 273 273 271 271 270 267 263 257
246 234 221 209 190 165 149 137 121 105 91 74 57 58 77 90 88 78 73 70 67 63 60 56 52 50 50 50 51 49 45 44 42 39 37 33 29 27 25 23 23 21 20 19 16 13 11 9 7 7 7 6 5 5 4 2 359 357 356 355 355 354 353 353 354 353 348 344 345 343 329 314 304 295 287 278 273 271 270 269 268 268 268 265 260
209 198 189 179 163 154 150 139 124 109 92 78 77 92 100 99 93 85 79 74 69 65 61 59 58 55 54 53 51 49 45 42 40 38 35 32 27 25 24 23 22 20 18 17 16 13 11 11 10 8 8 8 7 6 5 4 2 1 359 355 354 354 354 355 356 355 350 348 351 349 333 319 308 300 293 283 275 270 268 267 266 264 265 265 262
177 171 168 164 157 152 148 138 129 121 107 96 98 107 108 102 95 89 84 77 70 66 63 62 63 60 57 56 53 49 45 40 37 34 31 29 26 24 24 23 22 20 18 15 14 14 13 12 12 12 11 10 8 7 7 6 4 4 3 359 355 355 356 358 1 359 351 346 345 342 334 327 319 308 296 285 278 274 271 269 266 264 264 264 264
159 154 153 155 155 154 152 147 141 130 117 112 111 110 106 102 98 91 86 79 72 69 68 67 67 64 61 58 54 50 46 42 38 34 30 27 25 24 24 23 21 19 17 15 13 14 15 15 15 15 15 13 10 9 9 9 7 5 5 4 0 360 359 359 4 6 356 347 343 342 344 343 336 327 314 299 287 282 278 274 271 268 265 264 264
149 149 149 151 153 154 154 148 138 128 122 121 118 114 109 105 101 92 85 80 75 72 71 71 70 68 64 60 55 51 46 42 39 36 32 29 27 26 25 22 20 18 16 15 15 14 16 18 17 17 18 17 15 14 13 13 13 11 10 9 6 5 4 2 6 10 3 353 348 347 351 352 344 338 331 319 307 297 290 285 280 274 271 268 266
143 147 149 150 151 152 150 142 132 129 129 125 122 120 117 113 105 95 85 79 77 75 74 73 72 69 66 61 57 52 47 44 41 38 35 33 31 29 26 23 21 19 17 15 14 15 17 20 20 19 21 20 20 20 18 17 18 17 15 14 11 10 9 5 4 7 7 2 355 353 356 357 349 339 331 323 317 312 306 300 291 284 279 275 272
144 145 147 150 153 154 149 138 133 135 132 128 128 127 124 119 109 96 86 80 78 78 76 74 72 69 66 62 58 53 49 47 45 42 39 36 33 29 26 24 23 22 21 17 14 14 18 21 21 22 22 22 21 20 18 17 18 18 17 18 17 14 12 9 6 5 8 7 1 357 360 1 352 340 334 332 326 319 315 308 299 291 285 279 277
144 147 151 155 156 153 144 138 139 139 135 133 134 132 127 120 109 97 88 84 81 79 76 74 72 70 66 62 59 55 52 50 48 46 42 37 33 29 26 24 24 24 25 23 20 19 20 21 22 22 22 22 21 20 18 17 18 19 18 18 19 18 17 16 13 10 11 9 3 1 2 2 358 351 346 346 340 329 322 313 304 299 294 284 278
148 153 155 158 156 148 142 143 144 141 137 136 137 134 127 119 109 99 91 85 81 78 76 73 71 69 67 62 58 55 53 52 50 47 43 37 33 29 26 24 24 25 26 26 24 24 24 22 22 22 22 22 22 21 20 20 20 21 20 18 19 20 20 22 20 17 17 14 8 4 3 3 2 357 353 355 354 343 330 320 311 306 303 297 286
151 157 158 159 155 146 144 149 148 144 139 138 137 134 128 120 110 100 91 83 80 77 74 71 69 67 64 60 57 54 53 51 49 46 42 38 34 30 28 27 27 29 29 28 26 25 25 24 23 23 23 24 25 25 23 23 23 25 24 22 21 20 20 22 22 21 21 18 14 10 7 5 3 0 359 7 7 354 339 330 322 311 305 301 294
155 159 160 160 156 148 148 153 152 146 140 138 138 135 130 121 109 98 88 82 78 76 73 70 66 63 61 58 56 54 51 49 47 44 41 39 37 35 33 31 31 34 35 33 31 29 28 27 26 26 26 28 28 27 26 25 24 25 26 26 25 23 22 21 21 22 21 19 18 15 11 8 7 6 7 13 11 4 353 343 336 323 314 305 297
159 163 163 159 154 150 152 155 153 146 140 138 139 137 130 120 109 98 88 81 77 74 71 68 65 61 60 58 55 52 50 48 45 43 42 41 39 38 37 35 34 36 38 38 35 33 32 31 30 29 30 30 30 29 28 27 26 25 25 25 25 25 23 21 19 20 20 19 19 17 14 12 10 10 15 21 18 14 11 7 0 344 332 320 306
161 164 165 157 151 153 155 155 153 146 140 138 137 135 128 120 112 100 88 79 75 73 69 66 63 61 59 57 54 51 49 47 44 42 41 40 39 39 38 35 34 35 37 37 37 37 36 35 34 32 31 30 30 30 29 29 27 26 26 26 25 25 25 22 18 19 20 20 20 18 17 16 15 13 17 25 28 24 21 21 21 15 7 359 337
163 163 165 159 153 154 156 155 154 149 142 137 133 131 126 122 115 101 88 79 73 71 69 65 63 62 59 55 53 50 48 45 42 41 40 39 38 37 37 35 35 34 33 33 34 35 36 36 36 35 33 32 32 31 30 29 28 28 28 27 26 25 26 24 21 19 19 18 19 19 19 19 20 19 19 21 24 25 26 27 27 28 29 26 18